FW9105 Weather Reports


time (UTC)temp
F
wind
direction
speed
knots
gust
knots
rain 1hr
in
rain 24hr
in
rain mn
in
humidity
%
barometer
mb
20260906103004 67 18 1.7 2.6 0.00 0.00 0.00 97 1006.7
20260906100004 67 355 1.7 3.5 0.00 0.00 0.00 97 1006.7
20260906094501 67 9 2.6 3.5 0.00 0.00 0.00 97 1006.8
20260906093001 67 348 0.9 3.5 0.00 0.00 0.00 96 1006.7
20260906091502 67 360 1.7 2.6 0.00 0.00 0.00 96 1006.6
20260906090004 67 360 1.7 2.6 0.00 0.00 0.00 95 1006.7
20260906084503 68 18 1.7 4.3 0.00 0.00 0.00 93 1006.7
20260906083004 69 229 0.0 0.9 0.00 0.00 0.00 90 1006.7
20260906074501 69 360 0.0 0.9 0.00 0.00 0.00 92 1006.4
20260906073001 68 360 1.7 2.6 0.00 0.00 0.00 94 1006.2
20260906070003 70 360 2.6 3.5 0.00 0.00 0.00 87 1006.6
20260906064502 69 5 2.6 2.6 0.00 0.00 0.00 90 1006.5
20260906063001 68 355 1.7 3.5 0.00 0.00 0.00 94 1006.8
20260906060005 68 355 0.9 1.7 0.00 0.00 0.00 93 1007.2
20260906054502 68 355 1.7 3.5 0.00 0.00 0.00 95 1007.4
20260906053001 68 360 1.7 2.6 0.00 0.00 0.00 95 1007.6
20260906050006 68 5 1.7 2.6 0.00 0.00 0.00 95 1007.5
20260906044502 69 335 0.9 2.6 0.00 0.00 0.00 94 1008.0
20260906040004 68 349 2.6 3.5 0.00 0.00 0.00 96 1007.7
20260906034502 69 349 2.6 4.3 0.00 0.00 0.00 95 1008.1
20260906033005 70 340 0.9 2.6 0.00 0.00 0.00 93 1008.0
20260906031502 71 348 0.9 1.7 0.00 0.00 0.00 91 1008.1
20260906024502 72 183 0.9 1.7 0.00 0.00 0.00 86 1008.2
20260906023004 72 183 0.9 2.6 0.00 0.00 0.00 89 1008.1
20260906021502 72 342 0.0 1.7 0.00 0.00 0.00 88 1008.1
20260906013003 73 178 0.9 0.9 0.00 0.00 0.00 86 1007.9
20260906011504 72 178 0.9 1.7 0.00 0.00 0.00 87 1007.7
20260906010004 73 169 0.0 0.9 0.00 0.00 0.00 84 1007.3
20260906004503 72 163 0.9 2.6 0.00 0.00 0.00 90 1006.9
20260906003002 71 5 1.7 2.6 0.00 0.00 0.00 92 1006.6
20260906001503 72 5 1.7 2.6 0.00 0.00 0.00 93 1006.2
20260905234503 74 350 0.0 1.7 0.00 0.00 0.00 89 1006.6
20260905233003 75 350 0.0 1.7 0.00 0.00 0.00 86 1006.8
20260905231503 74 350 0.0 0.9 0.00 0.00 0.00 79 1006.9
20260905230004 74 350 0.9 2.6 0.00 0.00 0.00 89 1006.7
20260905223003 76 338 0.9 2.6 0.00 0.00 0.00 82 1006.3
20260905221501 77 182 0.0 3.5 0.00 0.00 0.00 81 1006.9
20260905220005 77 193 0.0 3.5 0.00 0.00 0.00 78 1006.8
20260905214502 77 211 0.0 0.0 0.00 0.00 0.00 77 1006.7
20260905213002 76 300 0.0 0.0 0.00 0.00 0.00 77 1006.9
20260905210004 77 5 2.6 5.2 0.00 0.00 0.00 78 1007.2
20260905204502 80 19 2.6 4.3 0.00 0.00 0.00 70 1007.2
20260905203002 82 15 2.6 5.2 0.00 0.00 0.00 68 1007.4
20260905200004 88 13 2.6 7.0 0.00 0.00 0.00 58 1007.0
20260905194504 90 360 0.0 1.7 0.00 0.00 0.00 59 1006.8
20260905193003 89 18 0.9 4.3 0.00 0.00 0.00 60 1006.8
20260905191501 89 53 1.7 3.5 0.00 0.00 0.00 60 1007.0
20260905190002 88 329 0.0 2.6 0.00 0.00 0.00 62 1007.1
20260905184502 88 5 1.7 3.5 0.00 0.00 0.00 66 1007.3
20260905183001 89 64 0.9 5.2 0.00 0.00 0.00 62 1007.5
20260905181501 89 300 0.9 2.6 0.00 0.00 0.00 63 1007.6
20260905180003 90 63 0.0 3.5 0.00 0.00 0.00 60 1008.0
20260905174501 88 250 0.9 1.7 0.00 0.00 0.00 61 1008.0
20260905173001 88 16 0.9 5.2 0.00 0.00 0.00 68 1008.1
20260905171502 88 34 0.0 2.6 0.00 0.00 0.00 64 1008.3
20260905170004 87 16 0.9 2.6 0.00 0.00 0.00 68 1008.3
20260905164503 87 10 1.7 4.3 0.00 0.00 0.00 70 1008.5
20260905163003 87 29 1.7 4.3 0.00 0.00 0.00 67 1008.9
20260905161503 86 12 0.9 3.5 0.00 0.00 0.00 71 1009.1
20260905160004 86 40 0.9 3.5 0.00 0.00 0.00 72 1009.2
20260905154501 84 355 1.7 5.2 0.00 0.00 0.00 72 1009.3
20260905153001 84 22 1.7 4.3 0.00 0.00 0.00 73 1009.4
20260905151501 84 5 0.9 3.5 0.00 0.00 0.00 74 1009.5
20260905150001 83 30 0.9 4.3 0.00 0.00 0.00 76 1009.3
20260905144502 82 5 0.9 1.7 0.00 0.00 0.00 77 1009.4
20260905143001 81 351 1.7 4.3 0.00 0.00 0.00 78 1009.7
20260905141501 81 24 0.0 1.7 0.00 0.00 0.00 80 1009.6
20260905133002 77 13 1.7 4.3 0.00 0.00 0.00 84 1009.9
20260905131502 77 5 0.0 0.0 0.00 0.00 0.00 84 1009.8
20260905124501 72 5 0.9 2.6 0.00 0.00 0.00 89 1009.6
20260905123000 72 5 1.7 3.5 0.00 0.00 0.00 90 1009.6
20260905121501 70 348 1.7 3.5 0.00 0.00 0.00 92 1009.6
20260905120003 70 355 1.7 3.5 0.00 0.00 0.00 92 1009.4
20260905114501 70 355 0.9 1.7 0.00 0.00 0.00 90 1009.4
20260905113003 71 355 0.0 1.7 0.00 0.00 0.00 89 1009.2
20260905111500 72 355 0.0 1.7 0.00 0.00 0.00 86 1009.0